,,Stat6,,Stat2,,Stat8,,Stat9,,Stat10,,Wind1,,Wind1,
time,status,PA1M_AVG,status,PR1M_SUM,status,RH1M_AVG,status,SR1M_AVG,status,TA1M_AVG,status,W1dAve1m,status,W1sAve1m,
2005-07-02, 00:00:00,VALID,918.466,VALID,0,VALID,100,VALID,-0.0339617,VALID,19.236,VALID,297,VALID,0.010831,
2005-07-02, 00:01:00,VALID,918.482,VALID,0,VALID,100,VALID,0,VALID,19.1648,VALID,297,VALID,0.155678,
2005-07-02, 00:02:00,VALID,918.49,VALID,0,VALID,100,VALID,-0.0169808,VALID,19.1126,VALID,333,VALID,0.578125,
2005-07-02, 00:03:00,VALID,918.484,VALID,0,VALID,100,VALID,0,VALID,19.0868,VALID,359,VALID,0.380952,
2005-07-02, 00:04:00,VALID,918.477,VALID,0,VALID,100,VALID,-0.0339617,VALID,19.0841,VALID,359,VALID,0.307664,
2005-07-02, 00:05:00,VALID,918.474,VALID,0,VALID,100,VALID,-0.0169808,VALID,19.062,VALID,359,VALID,0.285065,
2005-07-02, 00:06:00,VALID,918.477,VALID,0,VALID,100,VALID,-0.0169808,VALID,18.99,VALID,359,VALID,0.332667,
2005-07-02, 00:07:01,VALID,918.471,VALID,0,VALID,100,VALID,0,VALID,18.9619,VALID,359,VALID,0.629179,
2005-07-02, 00:08:00,VALID,918.465,VALID,0,VALID,100,VALID,-0.0509425,VALID,18.9552,VALID,353,VALID,0.89184,
2005-07-02, 00:09:00,VALID,918.445,VALID,0,VALID,100,VALID,-0.0169808,VALID,19.0128,VALID,347,VALID,1.12072,
2005-07-02, 00:10:00,VALID,918.448,VALID,0,VALID,100,VALID,-0.0339617,VALID,19.0036,VALID,3,VALID,0.821114,
2005-07-02, 00:11:00,VALID,918.446,VALID,0,VALID,100,VALID,0,VALID,18.9743,VALID,359,VALID,0.604581,
2005-07-02, 00:12:01,VALID,918.455,VALID,0,VALID,100,VALID,-0.0169808,VALID,18.9681,VALID,360,VALID,0.585379,
2005-07-02, 00:13:01,VALID,918.47,VALID,0,VALID,100,VALID,-0.0169808,VALID,18.9584,VALID,12,VALID,0.736281,
2005-07-02, 00:14:00,VALID,918.475,VALID,0,VALID,100,VALID,0,VALID,18.9261,VALID,12,VALID,1.04192,
2005-07-02, 00:15:00,VALID,918.477,VALID,0,VALID,100,VALID,-0.0169808,VALID,18.9068,VALID,8,VALID,1.0338,
2005-07-02, 00:16:00,VALID,918.474,VALID,0,VALID,100,VALID,0,VALID,18.8777,VALID,1,VALID,0.797585,
2005-07-02, 00:17:00,VALID,918.51,VALID,0,VALID,100,VALID,0,VALID,18.871,VALID,355,VALID,0.827744,
2005-07-02, 00:18:00,VALID,918.51,VALID,0,VALID,100,VALID,-0.0339617,VALID,18.8613,VALID,21,VALID,0.462028,
2005-07-02, 00:19:00,VALID,918.502,VALID,0,VALID,100,VALID,-0.0339617,VALID,18.8519,VALID,18,VALID,0.264648,
2005-07-02, 00:20:00,VALID,918.49,VALID,0,VALID,100,VALID,-0.0169808,VALID,18.8325,VALID,18,VALID,0.252148,
2005-07-02, 00:21:00,VALID,918.485,VALID,0,VALID,100,VALID,0,VALID,18.8549,VALID,18,VALID,0.0772372,
2005-07-02, 00:22:00,VALID,918.482,VALID,0,VALID,100,VALID,0,VALID,18.8646,VALID,18,VALID,0.510476,
2005-07-02, 00:23:01,VALID,918.466,VALID,0,VALID,100,VALID,-0.0169808,VALID,18.8484,VALID,18,VALID,0.663491,
2005-07-02, 00:24:00,VALID,918.441,VALID,0,VALID,100,VALID,-0.0339617,VALID,18.832,VALID,18,VALID,0.418857,
2005-07-02, 00:25:00,VALID,918.43,VALID,0,VALID,100,VALID,-0.0169808,VALID,18.8099,VALID,18,VALID,0.362614,
2005-07-02, 00:26:01,VALID,918.43,VALID,0,VALID,100,VALID,0,VALID,18.7903,VALID,18,VALID,0.282885,
2005-07-02, 00:27:00,VALID,918.447,VALID,0,VALID,100,VALID,0.0169808,VALID,18.7772,VALID,18,VALID,0.422828,
2005-07-02, 00:28:00,VALID,918.443,VALID,0,VALID,100,VALID,0.0339617,VALID,18.7742,VALID,18,VALID,0.729802,
2005-07-02, 00:29:00,VALID,918.449,VALID,0,VALID,100,VALID,0.0169808,VALID,18.7255,VALID,17,VALID,0.881392,
2005-07-02, 00:30:00,VALID,918.456,VALID,0,VALID,100,VALID,0.0339617,VALID,18.7091,VALID,15,VALID,1.03497,
2005-07-02, 00:31:00,VALID,918.466,VALID,0,VALID,100,VALID,0.0339617,VALID,18.693,VALID,13,VALID,0.94186,
2005-07-02, 00:32:00,VALID,918.475,VALID,0,VALID,100,VALID,0,VALID,18.6868,VALID,10,VALID,1.11483,
2005-07-02, 00:33:00,VALID,918.488,VALID,0,VALID,100,VALID,0.0169808,VALID,18.6769,VALID,9,VALID,0.565168,
2005-07-02, 00:34:00,VALID,918.474,VALID,0,VALID,100,VALID,0,VALID,18.6935,VALID,9,VALID,0.225836,
2005-07-02, 00:35:00,VALID,918.464,VALID,0,VALID,100,VALID,0.0169808,VALID,18.6739,VALID,9,VALID,0.116629,
2005-07-02, 00:36:00,VALID,918.448,VALID,0,VALID,100,VALID,0,VALID,18.6676,VALID,12,VALID,0.484184,
2005-07-02, 00:37:01,VALID,918.44,VALID,0,VALID,100,VALID,0,VALID,18.6448,VALID,28,VALID,1.01172,
2005-07-02, 00:38:00,VALID,918.419,VALID,0,VALID,100,VALID,0,VALID,18.6128,VALID,23,VALID,0.912194,
2005-07-02, 00:39:00,VALID,918.404,VALID,0,VALID,100,VALID,0,VALID,18.6031,VALID,8,VALID,1.01617,
2005-07-02, 00:40:00,VALID,918.406,VALID,0,VALID,100,VALID,-0.0169808,VALID,18.6252,VALID,360,VALID,0.643864,
2005-07-02, 00:41:00,VALID,918.438,VALID,0,VALID,100,VALID,0.0169808,VALID,18.6543,VALID,15,VALID,0.783558,
2005-07-02, 00:42:00,VALID,918.443,VALID,0,VALID,100,VALID,0,VALID,18.5957,VALID,30,VALID,0.872917,
2005-07-02, 00:43:01,VALID,918.468,VALID,0,VALID,100,VALID,0.0339617,VALID,18.5699,VALID,31,VALID,0.885789,
2005-07-02, 00:44:01,VALID,918.459,VALID,0,VALID,100,VALID,0,VALID,18.6287,VALID,20,VALID,0.725446,
2005-07-02, 00:45:00,VALID,918.45,VALID,0,VALID,100,VALID,0,VALID,18.7488,VALID,11,VALID,0.809375,
2005-07-02, 00:46:00,VALID,918.457,VALID,0,VALID,100,VALID,0,VALID,18.8057,VALID,10,VALID,0.642485,
2005-07-02, 00:47:00,VALID,918.476,VALID,0,VALID,100,VALID,0,VALID,18.877,VALID,10,VALID,0.398958,
2005-07-02, 00:48:00,VALID,918.501,VALID,0,VALID,100,VALID,0.0169808,VALID,18.9001,VALID,10,VALID,0.26617,
2005-07-02, 00:49:00,VALID,918.519,VALID,0,VALID,100,VALID,0.0169808,VALID,18.8971,VALID,10,VALID,0,
2005-07-02, 00:50:01,VALID,918.534,VALID,0,VALID,100,VALID,0,VALID,18.877,VALID,10,VALID,0,
2005-07-02, 00:51:01,VALID,918.574,VALID,0,VALID,100,VALID,0,VALID,18.8712,VALID,10,VALID,0,
2005-07-02, 00:52:00,VALID,918.603,VALID,0,VALID,100,VALID,0,VALID,18.8194,VALID,11,VALID,0.306686,
2005-07-02, 00:53:00,VALID,918.638,VALID,0,VALID,100,VALID,0.0169808,VALID,18.7124,VALID,149,VALID,0.65483,
2005-07-02, 00:54:01,VALID,918.673,VALID,0,VALID,100,VALID,0.0169808,VALID,18.6418,VALID,170,VALID,0.709985,
2005-07-02, 00:55:01,VALID,918.685,VALID,0,VALID,100,VALID,0.0169808,VALID,18.5964,VALID,179,VALID,0.809832,
2005-07-02, 00:56:00,VALID,918.693,VALID,0,VALID,100,VALID,0,VALID,18.5706,VALID,177,VALID,0.771205,
2005-07-02, 00:57:00,VALID,918.692,VALID,0,VALID,100,VALID,-0.0679233,VALID,18.5462,VALID,177,VALID,0.614462,
2005-07-02, 00:58:01,VALID,918.677,VALID,0,VALID,100,VALID,-0.0849042,VALID,18.5337,VALID,177,VALID,0.190625,
2005-07-02, 00:59:01,VALID,918.676,VALID,0,VALID,100,VALID,-0.101885,VALID,18.5432,VALID,178,VALID,0.301639,
2005-07-02, 01:00:00,VALID,918.654,VALID,0,VALID,100,VALID,-0.101885,VALID,18.5531,VALID,179,VALID,0.210938,
2005-07-02, 01:01:01,VALID,918.664,VALID,0,VALID,100,VALID,-0.0849042,VALID,18.566,VALID,179,VALID,0.106286,
2005-07-02, 01:02:00,VALID,918.66,VALID,0,VALID,100,VALID,-0.0679233,VALID,18.5851,VALID,179,VALID,0,
2005-07-02, 01:03:00,VALID,918.67,VALID,0,VALID,100,VALID,-0.101885,VALID,18.5044,VALID,165,VALID,0.194046,
2005-07-02, 01:04:00,VALID,918.677,VALID,0,VALID,100,VALID,-0.101885,VALID,18.4304,VALID,125,VALID,0.644618,
2005-07-02, 01:05:00,VALID,918.668,VALID,0,VALID,100,VALID,-0.101885,VALID,18.3753,VALID,125,VALID,0.55191,
2005-07-02, 01:06:01,VALID,918.672,VALID,0,VALID,100,VALID,-0.0679233,VALID,18.3592,VALID,125,VALID,0.455433,
2005-07-02, 01:07:00,VALID,918.66,VALID,0,VALID,100,VALID,-0.101885,VALID,18.3755,VALID,125,VALID,0.17024,
2005-07-02, 01:08:00,VALID,918.645,VALID,0,VALID,100,VALID,-0.0849042,VALID,18.3433,VALID,125,VALID,0.26181,
2005-07-02, 01:09:00,VALID,918.636,VALID,0,VALID,100,VALID,-0.0679233,VALID,18.2432,VALID,125,VALID,0.303668,
2005-07-02, 01:10:01,VALID,918.638,VALID,0,VALID,100,VALID,-0.118866,VALID,18.2109,VALID,125,VALID,0.198933,
2005-07-02, 01:11:00,VALID,918.639,VALID,0,VALID,100,VALID,-0.0679233,VALID,18.2144,VALID,125,VALID,0.0327035,
2005-07-02, 01:12:01,VALID,918.65,VALID,0,VALID,100,VALID,-0.0169808,VALID,18.2328,VALID,125,VALID,0,
2005-07-02, 01:13:00,VALID,918.681,VALID,0,VALID,100,VALID,-0.0169808,VALID,18.2939,VALID,125,VALID,0,
2005-07-02, 01:14:00,VALID,918.7,VALID,0,VALID,100,VALID,0,VALID,18.4104,VALID,125,VALID,0.142773,
2005-07-02, 01:15:00,VALID,918.709,VALID,0,VALID,100,VALID,0,VALID,18.5229,VALID,125,VALID,0.0512153,
2005-07-02, 01:16:00,VALID,918.708,VALID,0,VALID,100,VALID,0.0169808,VALID,18.5844,VALID,125,VALID,0,
2005-07-02, 01:17:01,VALID,918.718,VALID,0,VALID,100,VALID,-0.0169808,VALID,18.6232,VALID,125,VALID,0,
2005-07-02, 01:18:00,VALID,918.704,VALID,0,VALID,100,VALID,0,VALID,18.6291,VALID,125,VALID,0,
2005-07-02, 01:19:00,VALID,918.684,VALID,0,VALID,100,VALID,0,VALID,18.6165,VALID,125,VALID,0.014027,
2005-07-02, 01:20:00,VALID,918.677,VALID,0,VALID,100,VALID,-0.0169808,VALID,18.5844,VALID,125,VALID,0.0494792,
2005-07-02, 01:21:00,VALID,918.654,VALID,0,VALID,100,VALID,0,VALID,18.5097,VALID,125,VALID,0.0442708,
2005-07-02, 01:22:00,VALID,918.645,VALID,0,VALID,100,VALID,0,VALID,18.3815,VALID,125,VALID,0.592748,
2005-07-02, 01:23:01,VALID,918.642,VALID,0,VALID,100,VALID,-0.0169808,VALID,18.2388,VALID,125,VALID,1.01152,
2005-07-02, 01:24:00,VALID,918.632,VALID,0,VALID,100,VALID,-0.0169808,VALID,18.1648,VALID,128,VALID,1.07217,
2005-07-02, 01:25:01,VALID,918.605,VALID,0,VALID,100,VALID,-0.0169808,VALID,18.1812,VALID,138,VALID,0.83327,
2005-07-02, 01:26:00,VALID,918.603,VALID,0,VALID,100,VALID,0,VALID,18.2135,VALID,133,VALID,0.571221,
2005-07-02, 01:27:00,VALID,918.57,VALID,0,VALID,100,VALID,-0.0849042,VALID,18.2402,VALID,137,VALID,0.664063,
2005-07-02, 01:28:01,VALID,918.574,VALID,0,VALID,100,VALID,-0.101885,VALID,18.266,VALID,143,VALID,0.705983,
2005-07-02, 01:29:00,VALID,918.564,VALID,0,VALID,100,VALID,-0.101885,VALID,18.2856,VALID,142,VALID,0.774009,
2005-07-02, 01:30:00,VALID,918.556,VALID,0,VALID,100,VALID,-0.0509425,VALID,18.2955,VALID,132,VALID,0.611555,
2005-07-02, 01:31:01,VALID,918.545,VALID,0,VALID,100,VALID,-0.101885,VALID,18.3084,VALID,120,VALID,0.681641,
2005-07-02, 01:32:00,VALID,918.551,VALID,0,VALID,100,VALID,-0.101885,VALID,18.3336,VALID,133,VALID,0.978849,
2005-07-02, 01:33:00,VALID,918.53,VALID,0,VALID,100,VALID,-0.0849042,VALID,18.3956,VALID,133,VALID,0.834604,
2005-07-02, 01:34:01,VALID,918.531,VALID,0,VALID,100,VALID,0,VALID,18.4136,VALID,128,VALID,0.690039,
2005-07-02, 01:35:00,VALID,918.524,VALID,0,VALID,100,VALID,0,VALID,18.4163,VALID,120,VALID,0.830903,
2005-07-02, 01:36:00,VALID,918.514,VALID,0,VALID,100,VALID,0,VALID,18.4362,VALID,125,VALID,0.763626,
2005-07-02, 01:37:00,VALID,918.5,VALID,0,VALID,100,VALID,0.0169808,VALID,18.4352,VALID,106,VALID,0.891555,
2005-07-02, 01:38:00,VALID,918.47,VALID,0,VALID,100,VALID,0.0169808,VALID,18.4548,VALID,104,VALID,1.15589,
2005-07-02, 01:39:01,VALID,918.456,VALID,0,VALID,100,VALID,0,VALID,18.4618,VALID,87,VALID,0.734756,
2005-07-02, 01:40:00,VALID,918.445,VALID,0,VALID,100,VALID,0.0169808,VALID,18.4422,VALID,93,VALID,0.977734,
2005-07-02, 01:41:00,VALID,918.425,VALID,0,VALID,100,VALID,0.0169808,VALID,18.4389,VALID,102,VALID,0.804315,
2005-07-02, 01:42:00,VALID,918.396,VALID,0,VALID,100,VALID,0,VALID,18.4422,VALID,102,VALID,1.11168,
2005-07-02, 01:43:00,VALID,918.376,VALID,0,VALID,100,VALID,0.0169808,VALID,18.4193,VALID,94,VALID,0.989462,
2005-07-02, 01:44:01,VALID,918.364,VALID,0,VALID,100,VALID,0.0339617,VALID,18.42,VALID,85,VALID,1.13481,
2005-07-02, 01:45:00,VALID,918.347,VALID,0,VALID,100,VALID,0.0169808,VALID,18.4129,VALID,80,VALID,0.806548,
2005-07-02, 01:46:01,VALID,918.335,VALID,0,VALID,100,VALID,0.0339617,VALID,18.42,VALID,94,VALID,0.942116,
2005-07-02, 01:47:00,VALID,918.346,VALID,0,VALID,100,VALID,0.0339617,VALID,18.4131,VALID,104,VALID,0.89707,
2005-07-02, 01:48:01,VALID,918.338,VALID,0,VALID,100,VALID,0.0169808,VALID,18.4129,VALID,107,VALID,1.02162,
2005-07-02, 01:49:00,VALID,918.346,VALID,0,VALID,100,VALID,0.0339617,VALID,18.4293,VALID,102,VALID,0.826853,
2005-07-02, 01:50:01,VALID,918.36,VALID,0,VALID,100,VALID,0.0169808,VALID,18.4456,VALID,111,VALID,0.958079,
2005-07-02, 01:51:00,VALID,918.365,VALID,0,VALID,100,VALID,0,VALID,18.4749,VALID,115,VALID,0.789993,
2005-07-02, 01:52:01,VALID,918.363,VALID,0,VALID,100,VALID,0,VALID,18.4973,VALID,124,VALID,0.608594,
2005-07-02, 01:53:01,VALID,918.353,VALID,0,VALID,100,VALID,0,VALID,18.5129,VALID,104,VALID,0.587028,
2005-07-02, 01:54:00,VALID,918.346,VALID,0,VALID,100,VALID,0.0339617,VALID,18.5355,VALID,121,VALID,0.642531,
2005-07-02, 01:55:00,VALID,918.332,VALID,0,VALID,100,VALID,0.0169808,VALID,18.5653,VALID,126,VALID,0.797433,
2005-07-02, 01:56:00,VALID,918.32,VALID,0,VALID,100,VALID,0,VALID,18.578,VALID,135,VALID,1.01879,
2005-07-02, 01:57:00,VALID,918.309,VALID,0,VALID,100,VALID,0,VALID,18.5941,VALID,135,VALID,0.907393,
2005-07-02, 01:58:01,VALID,918.315,VALID,0,VALID,100,VALID,0.0169808,VALID,18.6102,VALID,130,VALID,0.34013,
2005-07-02, 01:59:01,VALID,918.314,VALID,0,VALID,100,VALID,0,VALID,18.613,VALID,128,VALID,0.775568,
2005-07-02, 02:00:01,VALID,918.29,VALID,0,VALID,100,VALID,0.0169808,VALID,18.6294,VALID,119,VALID,0.52096,
2005-07-02, 02:01:01,VALID,918.29,VALID,0,VALID,100,VALID,0.0339617,VALID,18.6257,VALID,119,VALID,0.543164,
2005-07-02, 02:02:01,VALID,918.28,VALID,0,VALID,100,VALID,0,VALID,18.6421,VALID,119,VALID,0.376453,
2005-07-02, 02:03:00,VALID,918.281,VALID,0,VALID,100,VALID,0,VALID,18.6421,VALID,119,VALID,0.4641,
2005-07-02, 02:04:01,VALID,918.278,VALID,0,VALID,100,VALID,0,VALID,18.6487,VALID,110,VALID,0.563086,
2005-07-02, 02:05:01,VALID,918.27,VALID,0,VALID,100,VALID,0,VALID,18.6617,VALID,101,VALID,0.445313,
2005-07-02, 02:06:01,VALID,918.27,VALID,0,VALID,100,VALID,0,VALID,18.6485,VALID,101,VALID,0.522485,
2005-07-02, 02:07:01,VALID,918.264,VALID,0,VALID,100,VALID,-0.0169808,VALID,18.6582,VALID,100,VALID,0.422637,
2005-07-02, 02:08:01,VALID,918.26,VALID,0,VALID,100,VALID,0,VALID,18.6746,VALID,73,VALID,0.871194,
2005-07-02, 02:09:00,VALID,918.263,VALID,0,VALID,100,VALID,0,VALID,18.6942,VALID,37,VALID,0.701215,
2005-07-02, 02:10:01,VALID,918.244,VALID,0,VALID,100,VALID,0.0169808,VALID,18.714,VALID,29,VALID,0.662861,
2005-07-02, 02:11:00,VALID,918.228,VALID,0,VALID,100,VALID,0.0169808,VALID,18.7133,VALID,29,VALID,0.646129,
2005-07-02, 02:12:01,VALID,918.224,VALID,0,VALID,100,VALID,-0.0169808,VALID,18.7235,VALID,35,VALID,0.528711,
2005-07-02, 02:13:01,VALID,918.227,VALID,0,VALID,100,VALID,-0.0169808,VALID,18.7135,VALID,42,VALID,0.326882,
2005-07-02, 02:14:01,VALID,918.232,VALID,0,VALID,100,VALID,0,VALID,18.7135,VALID,44,VALID,0.61238,
2005-07-02, 02:15:00,VALID,918.236,VALID,0,VALID,100,VALID,-0.0169808,VALID,18.7101,VALID,52,VALID,0.716146,
2005-07-02, 02:16:01,VALID,918.252,VALID,0,VALID,100,VALID,-0.0339617,VALID,18.7106,VALID,59,VALID,0.545099,
2005-07-02, 02:17:00,VALID,918.248,VALID,0,VALID,100,VALID,-0.0339617,VALID,18.7168,VALID,59,VALID,0.58647,
2005-07-02, 02:18:01,VALID,918.237,VALID,0,VALID,100,VALID,-0.0679233,VALID,18.7424,VALID,59,VALID,0.784884,
2005-07-02, 02:19:01,VALID,918.246,VALID,0,VALID,100,VALID,-0.0679233,VALID,18.7456,VALID,59,VALID,0.685138,
2005-07-02, 02:20:00,VALID,918.234,VALID,0,VALID,100,VALID,-0.0509425,VALID,18.7391,VALID,59,VALID,0.631359,
2005-07-02, 02:21:01,VALID,918.229,VALID,0,VALID,100,VALID,-0.0169808,VALID,18.7327,VALID,59,VALID,0.322218,
2005-07-02, 02:22:01,VALID,918.208,VALID,0,VALID,100,VALID,-0.0679233,VALID,18.7161,VALID,69,VALID,0.668786,
2005-07-02, 02:23:01,VALID,918.178,VALID,0,VALID,100,VALID,-0.0509425,VALID,18.723,VALID,100,VALID,0.6877,
2005-07-02, 02:24:01,VALID,918.155,VALID,0,VALID,100,VALID,-0.0339617,VALID,18.7161,VALID,141,VALID,1.00573,
2005-07-02, 02:25:01,VALID,918.131,VALID,0,VALID,100,VALID,-0.0169808,VALID,18.7163,VALID,141,VALID,0.976563,
2005-07-02, 02:26:01,VALID,918.107,VALID,0,VALID,100,VALID,-0.0509425,VALID,18.7165,VALID,130,VALID,0.54851,
2005-07-02, 02:27:01,VALID,918.084,VALID,0,VALID,100,VALID,-0.0339617,VALID,18.7135,VALID,143,VALID,0.596475,
2005-07-02, 02:28:01,VALID,918.064,VALID,0,VALID,100,VALID,0,VALID,18.7036,VALID,144,VALID,0.754724,
2005-07-02, 02:29:01,VALID,918.052,VALID,0,VALID,100,VALID,-0.0339617,VALID,18.6967,VALID,143,VALID,0.587391,
2005-07-02, 02:30:01,VALID,918.043,VALID,0,VALID,100,VALID,-0.0169808,VALID,18.7101,VALID,148,VALID,0.183321,
2005-07-02, 02:31:01,VALID,918.034,VALID,0,VALID,100,VALID,-0.0339617,VALID,18.7096,VALID,148,VALID,0.0322027,
2005-07-02, 02:32:01,VALID,918.039,VALID,0,VALID,100,VALID,-0.0679233,VALID,18.7195,VALID,148,VALID,0.0563227,
2005-07-02, 02:33:01,VALID,918.032,VALID,0,VALID,100,VALID,-0.0169808,VALID,18.7294,VALID,148,VALID,0.0664971,
2005-07-02, 02:34:01,VALID,918.028,VALID,0,VALID,100,VALID,0,VALID,18.7324,VALID,148,VALID,0.0682664,
2005-07-02, 02:35:01,VALID,918.015,VALID,0,VALID,100,VALID,0,VALID,18.7516,VALID,127,VALID,0.323933,
2005-07-02, 02:36:01,VALID,918.008,VALID,0,VALID,100,VALID,0,VALID,18.7682,VALID,121,VALID,0.319767,
2005-07-02, 02:37:01,VALID,917.999,VALID,0,VALID,100,VALID,0,VALID,18.7677,VALID,121,VALID,0.0373476,
2005-07-02, 02:38:01,VALID,917.995,VALID,0,VALID,100,VALID,-0.0169808,VALID,18.7744,VALID,121,VALID,0.0409226,
2005-07-02, 02:39:01,VALID,918.001,VALID,0,VALID,100,VALID,-0.0169808,VALID,18.7774,VALID,121,VALID,0.132626,
2005-07-02, 02:40:01,VALID,918.006,VALID,0,VALID,100,VALID,0,VALID,18.7841,VALID,121,VALID,0.0354421,
2005-07-02, 02:41:01,VALID,918.008,VALID,0,VALID,100,VALID,0,VALID,18.7873,VALID,121,VALID,0.303977,
2005-07-02, 02:42:00,VALID,918.012,VALID,0,VALID,100,VALID,-0.0169808,VALID,18.7677,VALID,121,VALID,0.0804869,
2005-07-02, 02:43:00,VALID,918.006,VALID,0,VALID,100,VALID,0,VALID,18.7483,VALID,121,VALID,0,
2005-07-02, 02:44:00,VALID,918.013,VALID,0,VALID,100,VALID,0,VALID,18.7446,VALID,121,VALID,0,
2005-07-02, 02:45:00,VALID,918.012,VALID,0,VALID,100,VALID,-0.0169808,VALID,18.7417,VALID,121,VALID,0.00981571,
2005-07-02, 02:46:00,VALID,918.015,VALID,0,VALID,100,VALID,0,VALID,18.7585,VALID,121,VALID,0.246094,
2005-07-02, 02:47:00,VALID,917.989,VALID,0,VALID,100,VALID,-0.0169808,VALID,18.7744,VALID,121,VALID,0.288715,
2005-07-02, 02:48:00,VALID,917.987,VALID,0,VALID,100,VALID,-0.0339617,VALID,18.7811,VALID,112,VALID,0.546689,
2005-07-02, 02:49:00,VALID,917.961,VALID,0,VALID,100,VALID,-0.0339617,VALID,18.7841,VALID,65,VALID,0.626529,
2005-07-02, 02:50:00,VALID,917.949,VALID,0,VALID,100,VALID,-0.0169808,VALID,18.7709,VALID,65,VALID,0.492882,
2005-07-02, 02:51:00,VALID,917.929,VALID,0,VALID,100,VALID,-0.0509425,VALID,18.762,VALID,65,VALID,0.581076,
2005-07-02, 02:52:00,VALID,917.925,VALID,0,VALID,100,VALID,-0.0339617,VALID,18.726,VALID,65,VALID,0.420686,
2005-07-02, 02:53:00,VALID,917.915,VALID,0,VALID,100,VALID,-0.0339617,VALID,18.7292,VALID,65,VALID,0.133765,
2005-07-02, 02:54:00,VALID,917.903,VALID,0,VALID,100,VALID,-0.0339617,VALID,18.7096,VALID,65,VALID,0,
2005-07-02, 02:55:00,VALID,917.902,VALID,0,VALID,100,VALID,0,VALID,18.6967,VALID,65,VALID,0,
2005-07-02, 02:56:00,VALID,917.902,VALID,0,VALID,100,VALID,-0.0509425,VALID,18.7006,VALID,65,VALID,0,
2005-07-02, 02:57:00,VALID,917.914,VALID,0,VALID,100,VALID,0,VALID,18.7036,VALID,65,VALID,0,
2005-07-02, 02:58:00,VALID,917.917,VALID,0,VALID,100,VALID,-0.0169808,VALID,18.7034,VALID,65,VALID,0.288318,
2005-07-02, 02:59:00,VALID,917.928,VALID,0,VALID,100,VALID,0,VALID,18.6898,VALID,83,VALID,0.675781,
2005-07-02, 03:00:00,VALID,917.932,VALID,0,VALID,100,VALID,0,VALID,18.6771,VALID,93,VALID,0.837652,
2005-07-02, 03:01:00,VALID,917.934,VALID,0,VALID,100,VALID,-0.0339617,VALID,18.6872,VALID,93,VALID,0.671354,
2005-07-02, 03:02:00,VALID,917.931,VALID,0,VALID,100,VALID,-0.0339617,VALID,18.6676,VALID,94,VALID,0.603659,
2005-07-02, 03:03:00,VALID,917.937,VALID,0,VALID,100,VALID,-0.0339617,VALID,18.6748,VALID,95,VALID,0.593572,
2005-07-02, 03:04:00,VALID,917.919,VALID,0,VALID,100,VALID,0,VALID,18.6644,VALID,98,VALID,0.542492,
2005-07-02, 03:05:00,VALID,917.908,VALID,0,VALID,100,VALID,-0.0339617,VALID,18.6679,VALID,99,VALID,0.67024,
2005-07-02, 03:06:00,VALID,917.888,VALID,0,VALID,100,VALID,0,VALID,18.6639,VALID,105,VALID,0.623512,
2005-07-02, 03:07:00,VALID,917.879,VALID,0,VALID,100,VALID,-0.0339617,VALID,18.7002,VALID,114,VALID,0.777257,
2005-07-02, 03:08:00,VALID,917.861,VALID,0,VALID,100,VALID,-0.0169808,VALID,18.723,VALID,116,VALID,0.768288,
2005-07-02, 03:09:00,VALID,917.848,VALID,0,VALID,100,VALID,-0.0679233,VALID,18.7421,VALID,116,VALID,0.789258,
2005-07-02, 03:10:00,VALID,917.839,VALID,0,VALID,100,VALID,-0.0679233,VALID,18.7488,VALID,116,VALID,0.842607,
2005-07-02, 03:11:00,VALID,917.828,VALID,0,VALID,100,VALID,-0.0339617,VALID,18.7424,VALID,118,VALID,0.919457,
2005-07-02, 03:12:00,VALID,917.817,VALID,0,VALID,100,VALID,0,VALID,18.7426,VALID,118,VALID,0.67951,
2005-07-02, 03:13:00,VALID,917.824,VALID,0,VALID,100,VALID,0,VALID,18.7198,VALID,103,VALID,0.541726,
2005-07-02, 03:14:00,VALID,917.809,VALID,0,VALID,100,VALID,-0.0339617,VALID,18.6944,VALID,98,VALID,0.976935,
2005-07-02, 03:15:00,VALID,917.799,VALID,0,VALID,100,VALID,-0.0509425,VALID,18.6716,VALID,102,VALID,0.855374,
2005-07-02, 03:16:00,VALID,917.795,VALID,0,VALID,100,VALID,-0.0339617,VALID,18.6428,VALID,100,VALID,0.921875,
2005-07-02, 03:17:00,VALID,917.786,VALID,0,VALID,100,VALID,-0.0339617,VALID,18.5874,VALID,95,VALID,0.968572,
2005-07-02, 03:18:00,VALID,917.781,VALID,0,VALID,100,VALID,0,VALID,18.5651,VALID,97,VALID,0.910065,
2005-07-02, 03:19:00,VALID,917.771,VALID,0,VALID,100,VALID,-0.0169808,VALID,18.5293,VALID,106,VALID,0.997093,
2005-07-02, 03:20:00,VALID,917.773,VALID,0,VALID,100,VALID,0,VALID,18.5102,VALID,111,VALID,1.08485,
2005-07-02, 03:21:00,VALID,917.772,VALID,0,VALID,100,VALID,0,VALID,18.4903,VALID,109,VALID,1.35212,
2005-07-02, 03:22:00,VALID,917.783,VALID,0,VALID,100,VALID,-0.0339617,VALID,18.4744,VALID,110,VALID,1.19194,
2005-07-02, 03:23:00,VALID,917.793,VALID,0,VALID,100,VALID,-0.0169808,VALID,18.4615,VALID,114,VALID,1.09909,
2005-07-02, 03:24:00,VALID,917.807,VALID,0,VALID,100,VALID,-0.0169808,VALID,18.4489,VALID,116,VALID,0.786204,
2005-07-02, 03:25:00,VALID,917.802,VALID,0,VALID,100,VALID,-0.0679233,VALID,18.4459,VALID,125,VALID,0.806402,
2005-07-02, 03:26:00,VALID,917.803,VALID,0,VALID,100,VALID,-0.0509425,VALID,18.4426,VALID,126,VALID,1.03815,
2005-07-02, 03:27:00,VALID,917.818,VALID,0,VALID,100,VALID,-0.0339617,VALID,18.4424,VALID,126,VALID,1.05124,
2005-07-02, 03:28:00,VALID,917.812,VALID,0,VALID,100,VALID,-0.0509425,VALID,18.4585,VALID,127,VALID,1.11192,
2005-07-02, 03:29:00,VALID,917.819,VALID,0,VALID,100,VALID,-0.0169808,VALID,18.4645,VALID,130,VALID,0.838742,
2005-07-02, 03:30:00,VALID,917.812,VALID,0,VALID,100,VALID,-0.0169808,VALID,18.4714,VALID,117,VALID,0.972569,
2005-07-02, 03:31:00,VALID,917.81,VALID,0,VALID,100,VALID,0,VALID,18.4648,VALID,123,VALID,0.855469,
2005-07-02, 03:32:00,VALID,917.814,VALID,0,VALID,100,VALID,0,VALID,18.4581,VALID,127,VALID,1.04488,
2005-07-02, 03:33:00,VALID,917.812,VALID,0,VALID,100,VALID,0,VALID,18.4613,VALID,115,VALID,0.649164,
2005-07-02, 03:34:00,VALID,917.829,VALID,0,VALID,100,VALID,-0.0169808,VALID,18.4486,VALID,104,VALID,0.565163,
2005-07-02, 03:35:00,VALID,917.849,VALID,0,VALID,100,VALID,0,VALID,18.429,VALID,98,VALID,0.554315,
2005-07-02, 03:36:00,VALID,917.866,VALID,0,VALID,100,VALID,0,VALID,18.4297,VALID,98,VALID,0.585938,
2005-07-02, 03:37:00,VALID,917.885,VALID,0,VALID,100,VALID,-0.0169808,VALID,18.394,VALID,97,VALID,0.606585,
2005-07-02, 03:38:00,VALID,917.926,VALID,0,VALID,100,VALID,0,VALID,18.3714,VALID,93,VALID,0.510231,
2005-07-02, 03:39:00,VALID,917.935,VALID,0,VALID,100,VALID,-0.0169808,VALID,18.3522,VALID,91,VALID,0.486281,
2005-07-02, 03:40:00,VALID,917.954,VALID,0,VALID,100,VALID,-0.0339617,VALID,18.323,VALID,91,VALID,0.327398,
2005-07-02, 03:41:00,VALID,917.967,VALID,0,VALID,100,VALID,0,VALID,18.3133,VALID,91,VALID,0.046875,
2005-07-02, 03:42:00,VALID,917.979,VALID,0,VALID,100,VALID,0,VALID,18.2969,VALID,91,VALID,0,
2005-07-02, 03:43:00,VALID,917.981,VALID,0,VALID,100,VALID,0,VALID,18.3105,VALID,91,VALID,0.036044,